Location: NJAA Observatory
(40.6819°N, 74.8979°W)
Time: 02:21:53
(UTC-04:00)

Cosmos 2263 Rocket - Visible Passes

Search period start: 27 August 2016 00:00
Search period end: 06 September 2016 00:00
Orbit: 825 x 847 km, 71.0° (Epoch: 26 August)

Date Brightness Start Highest point End Pass type
(mag) Time Alt. Az. Time Alt. Az. Time Alt. Az.
27 Aug 4.5 00:22:01 10° NW 00:23:33 17° WNW 00:23:33 17° WNW visible
27 Aug 3.0 22:20:59 10° N 22:25:29 37° NE 22:25:29 37° NE visible
28 Aug 4.3 00:05:12 10° NW 00:07:11 19° WNW 00:07:11 19° WNW visible
28 Aug 3.0 22:04:20 10° N 22:09:09 36° NE 22:09:09 36° NE visible
28 Aug 4.1 23:48:25 10° NW 23:50:51 22° WNW 23:50:51 22° WNW visible
29 Aug 3.0 21:47:42 10° N 21:52:44 33° ENE 21:52:51 33° ENE visible
29 Aug 3.9 23:31:38 10° NW 23:34:33 26° WNW 23:34:33 26° WNW visible
30 Aug 3.1 21:31:05 10° N 21:35:59 31° ENE 21:36:35 30° ENE visible
30 Aug 3.7 23:14:51 10° NW 23:18:16 30° WNW 23:18:16 30° WNW visible
31 Aug 3.2 21:14:27 10° N 21:19:15 29° NE 21:20:21 27° ENE visible
31 Aug 3.4 22:58:06 10° NW 23:02:03 36° WNW 23:02:03 36° WNW visible
01 Sep 3.3 20:57:51 10° N 21:02:31 27° NE 21:04:09 23° E visible
01 Sep 3.1 22:41:20 10° NW 22:45:51 42° W 22:45:51 42° W visible
02 Sep 3.4 20:41:14 10° N 20:45:46 25° NE 20:48:00 19° E visible
02 Sep 2.8 22:24:36 10° NW 22:29:43 48° W 22:29:43 48° W visible
03 Sep 3.5 20:24:38 10° N 20:29:01 23° NE 20:31:55 16° E visible
03 Sep 2.6 22:07:51 10° NNW 22:13:15 53° WSW 22:13:37 52° WSW visible
04 Sep 3.6 20:08:03 10° N 20:12:16 21° NE 20:15:53 12° E visible
04 Sep 2.5 21:51:07 10° NNW 21:56:35 58° WSW 21:57:35 50° SSW visible
05 Sep 3.6 19:51:28 10° N 19:55:31 20° NE 19:59:33 10° E visible
05 Sep 2.4 21:34:24 10° NNW 21:39:55 64° WSW 21:41:37 43° S visible
